This is the latest recevied weather packets stored in our database for station/object KC1HBM. If no packets are shown the sender has not sent any weather packets the latest 10 day(s).
| Time | Temp. | Humidity | Pressure | Rain* | Wind** | Luminosity | Snow |
|---|---|---|---|---|---|---|---|
| 1778009889 | 16.11° C | 76% | 1002.8 hPa | 0 mm | - | 39 W/m² | - |
| 1778009587 | 16.11° C | 75% | 1003 hPa | 0 mm | - | 40 W/m² | - |
| 1778009285 | 16.11° C | 76% | 1003.1 hPa | 0 mm | - | 42 W/m² | - |
| 1778008983 | 16.11° C | 75% | 1003.3 hPa | 0 mm | - | 43 W/m² | - |
| 1778008680 | 15.56° C | 76% | 1003.3 hPa | 0 mm | - | 47 W/m² | - |
| 1778008379 | 15° C | 78% | 1003.4 hPa | 0 mm | - | 47 W/m² | - |
| 1778008075 | 15° C | 78% | 1003.5 hPa | 0 mm | - | 51 W/m² | - |
| 1778007770 | 15.56° C | 76% | 1003.7 hPa | 0 mm | - | 52 W/m² | - |
| 1778007467 | 16.11° C | 75% | 1003.6 hPa | 0 mm | - | 49 W/m² | - |
| 1778007163 | 16.67° C | 73% | 1003.6 hPa | 0 mm | - | 54 W/m² | - |
| 1778006859 | 16.67° C | 73% | 1003.6 hPa | 0 mm | - | 57 W/m² | - |
| 1778006557 | 17.78° C | 71% | 1003.7 hPa | 0 mm | - | 59 W/m² | - |
| 1778006253 | 17.78° C | 70% | 1003.7 hPa | 0 mm | - | 59 W/m² | - |
| 1778005951 | 17.78° C | 69% | 1003.5 hPa | 0 mm | - | 75 W/m² | - |
| 1778005647 | 17.22° C | 71% | 1003.7 hPa | 0 mm | - | 101 W/m² | - |
| 1778005344 | 16.67° C | 72% | 1003.6 hPa | 0 mm | - | 534 W/m² | - |
| 1778005040 | 16.11° C | 74% | 1003.7 hPa | 0 mm | - | 171 W/m² | - |
| 1778004738 | 16.11° C | 75% | 1004 hPa | 0 mm | - | 138 W/m² | - |
| 1778004434 | 16.11° C | 75% | 1003.8 hPa | 0 mm | - | 81 W/m² | - |
| 1778004131 | 15.56° C | 75% | 1004.2 hPa | 0 mm | - | 92 W/m² | - |
| 1778003827 | 15.56° C | 75% | 1004.1 hPa | 0 mm | - | 161 W/m² | - |
| 1778003523 | 16.11° C | 75% | 1004 hPa | 0 mm | - | 635 W/m² | - |
| 1778003220 | 16.11° C | 74% | 1004.4 hPa | 0 mm | - | 205 W/m² | - |
| 1778002915 | 16.67° C | 73% | 1004.2 hPa | 0 mm | - | 538 W/m² | - |
| 1778002613 | 17.22° C | 71% | 1004.5 hPa | 0 mm | - | 616 W/m² | - |
* Rain latest hour (hover to see other rain measurements)
** Current wind speed in m/s (hover to see current wind gust speed)